Waarnemingen

Advertentie
Mijn weer
Tarbes/Ossun, Frankrijk (7621): temperatuur & dauwpunt: 19.09.2017 06:00:00 - 25.09.2017 06:00:00 (CEST)Tarbes/Ossun, Frankrijk (7621): temperatuur 5cm: 19.09.2017 06:00:00 - 25.09.2017 06:00:00 (CEST)Tarbes/Ossun, Frankrijk (7621): temperatuur -20cm & temperatuur -100cm: 19.09.2017 06:00:00 - 25.09.2017 06:00:00 (CEST)Tarbes/Ossun, Frankrijk (7621): windsnelheid & windstoten: 19.09.2017 06:00:00 - 25.09.2017 06:00:00 (CEST)Tarbes/Ossun, Frankrijk (7621): windrichting: 19.09.2017 06:00:00 - 25.09.2017 06:00:00 (CEST)Tarbes/Ossun, Frankrijk (7621): luchtdruk: 19.09.2017 06:00:00 - 25.09.2017 06:00:00 (CEST)Tarbes/Ossun, Frankrijk (7621): zicht: 19.09.2017 06:00:00 - 25.09.2017 06:00:00 (CEST)Tarbes/Ossun, Frankrijk (7621): Zonneschijnduur: 19.09.2017 06:00:00 - 25.09.2017 06:00:00 (CEST)Tarbes/Ossun, Frankrijk (7621): neerslag: 19.09.2017 06:00:00 - 25.09.2017 06:00:00 (CEST)
Datum & Tijd tt [°C] td [°C] tt 5cm [°C] tt -20cm [°C] tt -100cm [°C] ff [km/u] ff [kn] fx [km/u] fx [kn] dd ppp [hPa] vv [km] sd [min] rr [mm]
25.09.2017 06:00:00 14,8 12,7 14,2 17,4 16,7 14 8 39 21 ZW 1020,5 10 0 0,8
25.09.2017 05:00:00 16,7 14,9 16,1 17,5 16,7 23 12 41 22 W 1020,2 14 0 0,0
25.09.2017 04:00:00 17,2 15,5 - - - 28 15 54 29 W 1019,7 8 - 0,0
25.09.2017 03:00:00 17,3 16,0 14,0 17,6 16,7 29 15 49 26 W 1019,0 10 0 0,0
25.09.2017 02:00:00 17,1 13,4 11,8 17,7 16,7 16 9 33 18 ZW 1018,3 43 0 0,0
25.09.2017 01:00:00 16,8 11,7 13,0 17,7 16,7 8 5 17 9 ZZO 1017,4 49 0 0,0
25.09.2017 00:00:00 16,5 12,3 13,1 17,7 16,7 9 5 18 10 ZZO 1017,5 43 0 0,0
24.09.2017 23:00:00 17,4 13,1 13,2 17,7 16,8 11 6 15 8 ZZO 1018,0 42 0 0,0
24.09.2017 22:00:00 17,0 13,5 13,8 17,7 16,7 10 5 16 9 Z 1018,3 42 0 0,0
24.09.2017 21:00:00 16,8 13,7 14,2 17,6 16,8 8 4 11 6 Z 1018,3 39 0 0,0
24.09.2017 20:00:00 20,1 16,1 16,3 17,4 16,7 6 3 12 6 ZZW 1017,5 34 6 0,0
24.09.2017 19:00:00 25,5 12,3 20,8 17,3 16,8 4 2 13 7 ONO 1016,8 58 33 0,0
24.09.2017 18:00:00 26,5 12,9 25,2 17,1 16,8 10 5 20 11 NNO 1016,6 54 60 0,0
24.09.2017 17:00:00 27,4 13,3 30,1 16,9 16,8 11 6 23 13 N 1016,6 38 60 0,0
24.09.2017 16:00:00 27,5 11,1 33,2 16,7 16,7 11 6 20 11 N 1016,7 19 60 0,0
24.09.2017 15:00:00 27,2 13,2 33,4 16,5 16,8 9 5 24 13 O 1017,0 13 60 0,0
24.09.2017 14:00:00 26,3 13,4 32,2 16,4 16,7 10 5 21 11 ONO 1017,7 47 60 0,0
24.09.2017 13:00:00 25,3 14,4 28,9 16,4 16,8 9 5 20 11 ONO 1018,1 40 60 0,0
24.09.2017 12:00:00 23,9 14,0 23,6 16,4 16,8 8 4 15 8 ONO 1018,7 51 60 0,0
24.09.2017 11:00:00 21,4 13,3 - - - 2 1 8 4 ONO 1019,3 19 - -
24.09.2017 10:00:00 17,5 12,8 12,9 16,5 16,8 4 2 11 6 Z 1020,0 19 60 0,0
24.09.2017 09:00:00 13,4 11,1 10,0 16,5 16,8 8 4 12 7 ZZO 1020,4 50 40 0,0
24.09.2017 08:00:00 12,0 9,7 - - - 11 6 16 9 Z 1020,5 40 - -
24.09.2017 07:00:00 12,9 10,4 10,3 16,7 16,8 11 6 17 9 ZZO 1020,4 35 0 0,0
24.09.2017 06:00:00 13,4 9,6 10,9 16,8 16,8 11 6 21 11 Z 1020,2 49 0 0,0
24.09.2017 05:00:00 15,0 11,9 12,5 16,8 16,8 16 9 26 14 Z 1020,1 33 0 0,0
24.09.2017 04:00:00 15,2 11,6 11,8 16,9 16,8 12 7 22 12 ZW 1020,6 42 0 0,0
24.09.2017 03:00:00 15,4 10,2 12,0 16,9 16,8 18 10 23 13 Z 1019,9 50 0 0,0
24.09.2017 02:00:00 15,4 10,6 11,4 17,0 16,8 14 8 18 10 Z 1019,8 48 0 0,0
24.09.2017 01:00:00 15,5 11,3 12,9 17,0 16,8 13 7 20 11 Z 1019,8 45 0 0,0
24.09.2017 00:00:00 15,9 12,1 12,2 17,0 16,8 14 7 18 10 Z 1019,5 44 0 0,0
23.09.2017 23:00:00 14,7 12,9 11,4 17,0 16,8 11 6 14 8 ZZO 1019,7 39 0 0,0
23.09.2017 22:00:00 15,0 12,3 11,8 17,0 16,8 6 4 16 9 Z 1019,4 37 0 0,0
23.09.2017 21:00:00 15,7 13,4 12,7 16,9 16,8 13 7 16 8 Z 1018,9 35 0 0,0
23.09.2017 20:00:00 19,0 14,7 - - - 9 5 11 6 ZZW 1018,0 40 - -
23.09.2017 19:00:00 24,8 11,7 - - - 5 3 11 6 O 1017,0 55 - 0,0
23.09.2017 18:00:00 25,1 12,3 25,9 16,3 16,8 6 3 16 9 NO 1016,8 53 60 0,0
23.09.2017 17:00:00 25,7 12,5 29,4 16,1 16,8 7 4 16 9 N 1016,9 43 60 0,0
23.09.2017 16:00:00 25,7 11,1 32,3 15,9 16,8 6 4 16 9 NNO 1017,2 52 60 0,0
23.09.2017 15:00:00 25,7 12,2 30,6 15,8 16,8 7 4 17 9 O 1017,5 19 60 0,0
23.09.2017 14:00:00 24,2 13,7 29,4 15,6 16,8 9 5 19 11 N 1017,6 41 60 0,0
23.09.2017 13:00:00 22,7 13,5 27,1 15,6 16,8 8 4 17 9 NNO 1017,9 49 58 0,0
23.09.2017 12:00:00 20,9 12,8 21,3 15,6 16,8 6 4 11 6 NO 1018,7 28 60 0,0
23.09.2017 11:00:00 17,1 13,8 - - - 4 2 9 5 NNW 1019,5 29 - -
23.09.2017 10:00:00 13,7 12,8 10,3 15,8 16,8 2 1 5 3 NO 1020,1 20 60 0,0
23.09.2017 09:00:00 10,5 10,2 6,1 15,9 16,8 3 2 6 3 ZZO 1020,6 19 41 0,0
23.09.2017 08:00:00 8,5 8,1 5,6 16,0 16,8 4 2 8 4 Z 1021,2 14 0 0,0
23.09.2017 07:00:00 8,8 8,2 5,5 16,0 16,8 5 3 8 4 ZW 1021,3 15 0 0,0
23.09.2017 06:00:00 9,5 8,9 6,2 16,1 16,8 4 2 7 4 ZZO 1021,4 6 0 0,0
23.09.2017 05:00:00 9,9 9,3 6,9 16,2 16,9 3 2 8 5 ZZO 1021,9 4,5 0 0,0
23.09.2017 04:00:00 10,0 9,2 7,7 16,3 16,8 5 3 9 5 Z 1022,3 7 0 0,0
23.09.2017 03:00:00 11,6 11,0 7,8 16,3 16,9 5 3 8 4 ZO 1022,5 9 0 0,0
23.09.2017 02:00:00 11,5 10,9 9,2 16,4 16,9 6 4 10 6 Z 1022,9 11 0 0,0
23.09.2017 01:00:00 11,3 10,5 9,7 16,4 16,8 8 4 9 5 ZZW 1023,0 8 0 0,0
23.09.2017 00:00:00 12,7 11,6 10,9 16,4 16,9 2 1 7 4 Z 1022,8 13 0 0,0
22.09.2017 23:00:00 13,2 12,3 12,1 16,4 16,9 3 1 7 4 NNW 1022,8 10 0 0,0
22.09.2017 22:00:00 13,8 12,5 12,2 16,4 16,9 6 4 11 6 ZW 1022,7 18 0 0,0
22.09.2017 21:00:00 15,1 13,0 - - - 2 1 9 5 ZZO 1022,2 13 - 0,0
22.09.2017 20:00:00 15,5 12,8 14,8 16,3 16,8 5 3 9 5 ZZO 1022,1 20 0 0,0
22.09.2017 19:00:00 16,2 12,0 15,8 16,3 16,9 3 2 7 4 ONO 1022,0 41 0 0,0
22.09.2017 18:00:00 17,0 11,7 18,2 16,3 16,9 3 1 13 7 ONO 1022,0 40 0 0,0
22.09.2017 17:00:00 17,0 12,7 17,7 16,2 16,9 5 3 24 13 NW 1022,3 20 0 0,2
22.09.2017 16:00:00 16,4 12,9 17,6 16,2 16,9 6 4 10 6 ZZW 1022,3 29 0 0,0
22.09.2017 15:00:00 16,1 11,7 17,4 16,2 16,9 7 4 14 8 NW 1022,7 41 0 0,0
22.09.2017 14:00:00 16,1 11,3 17,1 16,1 16,9 6 3 18 10 N 1022,3 42 0 0,0
22.09.2017 13:00:00 16,1 13,6 17,0 16,1 16,9 12 6 24 13 NNW 1022,5 21 0 0,0
22.09.2017 12:00:00 15,8 13,1 16,6 16,1 16,9 7 4 16 9 ZO 1021,9 29 0 0,0
22.09.2017 11:00:00 14,9 13,6 14,6 16,1 16,9 3 2 17 9 ZW 1022,2 19 0 0,0
22.09.2017 10:00:00 14,1 13,1 14,1 16,2 16,9 3 2 14 8 NNW 1022,3 16 0 0,2
22.09.2017 09:00:00 13,3 12,4 - - - 5 3 11 6 ZW 1021,9 19 - 0,0
22.09.2017 08:00:00 12,9 11,8 10,9 16,3 16,9 10 5 15 8 ZO 1021,4 24 0 0,0
22.09.2017 07:00:00 13,0 11,4 11,6 16,3 16,9 6 4 11 6 ZZO 1021,4 34 0 0,0
22.09.2017 06:00:00 13,3 12,0 11,8 16,4 16,9 4 2 20 11 ZW 1021,6 9 0 0,0
22.09.2017 05:00:00 13,7 12,9 10,7 16,4 16,9 8 4 24 13 ZW 1021,8 19 0 0,0
22.09.2017 04:00:00 12,4 11,3 10,7 16,4 16,9 9 5 18 10 ZZW 1022,0 27 0 0,0
22.09.2017 03:00:00 13,4 12,5 11,4 16,5 16,9 7 4 10 5 ZZW 1021,9 25 0 0,0
22.09.2017 02:00:00 13,8 12,5 10,3 16,6 16,9 6 4 11 6 ZZW 1021,6 29 0 0,0
22.09.2017 01:00:00 14,0 12,6 10,9 16,6 16,9 6 4 16 9 ZW 1021,5 26 0 0,0
22.09.2017 00:00:00 14,4 12,6 11,6 16,6 16,9 8 5 21 11 ZW 1021,2 24 0 0,0
21.09.2017 23:00:00 14,9 12,8 11,9 16,6 17,0 8 5 24 13 WZW 1021,0 29 0 0,0
21.09.2017 22:00:00 15,9 12,1 12,9 16,5 16,9 13 7 26 14 WZW 1020,7 36 0 0,0
21.09.2017 21:00:00 16,3 12,5 12,4 16,5 17,0 11 6 21 12 WZW 1020,0 38 0 0,0
21.09.2017 20:00:00 18,0 11,5 13,6 16,3 17,0 10 5 16 9 WNW 1018,6 45 0 0,0
21.09.2017 19:00:00 21,7 11,1 19,2 16,2 17,0 11 6 19 10 WNW 1017,3 46 58 0,0
21.09.2017 18:00:00 22,5 8,6 21,7 16,0 16,9 10 5 20 11 WNW 1016,6 40 49 0,0
21.09.2017 17:00:00 23,7 9,3 26,9 15,8 17,0 11 6 24 13 NW 1016,1 50 48 0,0
21.09.2017 16:00:00 23,4 11,4 28,5 15,6 17,0 12 7 32 18 W 1016,0 20 50 0,0
21.09.2017 15:00:00 24,1 8,1 31,5 15,5 17,0 7 4 17 9 NW 1016,0 19 60 0,0
21.09.2017 14:00:00 23,5 10,2 30,2 15,4 17,0 9 5 18 10 W 1016,2 19 60 0,0
21.09.2017 13:00:00 22,7 8,4 25,9 15,3 17,0 10 5 20 11 W 1016,6 14 60 0,0
21.09.2017 12:00:00 22,1 7,9 22,9 15,3 17,0 8 4 26 14 WNW 1016,7 19 60 0,0
21.09.2017 11:00:00 21,2 10,7 16,7 15,4 17,0 4 2 13 7 ZZW 1016,7 40 60 0,0
21.09.2017 10:00:00 17,4 9,8 11,2 15,5 17,0 8 5 16 9 ZZO 1016,9 34 60 0,0
21.09.2017 09:00:00 13,4 8,2 7,8 15,5 17,0 13 7 18 10 Z 1017,3 36 48 0,0
21.09.2017 08:00:00 10,9 6,6 7,3 15,6 17,0 13 7 22 12 Z 1017,4 45 0 0,0
21.09.2017 07:00:00 10,6 6,7 5,8 15,8 17,0 15 8 21 12 Z 1017,0 47 0 0,0
21.09.2017 06:00:00 8,3 7,5 5,2 15,9 17,0 10 6 16 9 ZZO 1017,5 47 0 0,0
21.09.2017 05:00:00 7,8 6,7 4,6 16,0 17,0 8 5 11 6 ZZO 1017,7 41 0 0,0
21.09.2017 04:00:00 6,7 6,0 4,5 16,1 17,0 6 3 7 4 Z 1018,2 40 0 0,0
21.09.2017 03:00:00 7,0 6,3 5,0 16,2 17,0 5 3 8 4 ZZO 1018,6 39 0 0,0
21.09.2017 02:00:00 8,0 7,1 5,2 16,3 17,0 4 2 8 4 ZZW 1018,6 44 0 0,0
21.09.2017 01:00:00 8,0 7,1 5,7 16,3 17,0 5 3 9 5 Z 1018,8 39 0 0,0
21.09.2017 00:00:00 8,4 7,2 5,9 16,4 17,0 5 3 9 5 ZZW 1019,2 47 0 0,0
20.09.2017 23:00:00 9,7 8,3 6,6 16,4 17,0 4 2 7 4 Z 1019,1 51 0 0,0
20.09.2017 22:00:00 10,6 8,5 7,2 16,4 17,0 4 2 8 4 ZZW 1019,5 50 0 0,0
20.09.2017 21:00:00 11,8 8,6 8,4 16,4 17,1 5 3 7 4 Z 1019,7 56 0 0,0
20.09.2017 20:00:00 16,9 7,3 11,1 16,2 17,1 5 3 15 8 NO 1018,9 60 39 0,0
20.09.2017 19:00:00 18,9 7,3 16,1 16,0 17,1 7 4 18 10 ONO 1018,9 56 60 0,0
20.09.2017 18:00:00 19,7 7,4 21,0 15,9 17,1 10 5 18 10 NNO 1019,0 41 60 0,0
20.09.2017 17:00:00 19,8 7,2 25,7 15,6 17,1 11 6 24 13 N 1019,3 33 60 0,0
20.09.2017 16:00:00 20,0 8,0 28,3 15,5 17,1 11 6 24 13 NO 1019,6 50 60 0,0
20.09.2017 15:00:00 19,3 6,7 28,2 15,4 17,1 9 5 24 13 NO 1019,9 53 60 0,0
20.09.2017 14:00:00 19,2 7,3 27,0 15,3 17,1 8 4 24 13 NO 1020,6 38 60 0,0
20.09.2017 13:00:00 17,7 8,0 23,0 15,3 17,1 11 6 28 15 NO 1021,5 57 60 0,0
20.09.2017 12:00:00 16,7 8,1 18,8 15,3 17,1 12 7 24 13 ONO 1021,9 60 60 0,0
20.09.2017 11:00:00 14,8 8,7 12,7 15,4 17,1 6 3 13 7 NO 1022,6 57 60 0,0
20.09.2017 10:00:00 11,9 8,2 8,8 15,5 17,1 2 1 6 4 Z 1023,4 48 60 0,0
20.09.2017 09:00:00 8,8 7,9 4,0 15,6 17,1 4 2 10 5 ZZO 1024,1 42 51 0,0
20.09.2017 08:00:00 5,5 4,6 3,6 15,7 17,1 7 4 10 5 Z 1024,7 38 0 0,0
20.09.2017 07:00:00 5,7 5,0 3,6 15,8 17,1 5 3 10 5 ZZO 1024,7 35 0 0,0
20.09.2017 06:00:00 6,7 5,8 4,3 15,9 17,1 6 3 11 6 Z 1024,8 45 0 0,0
20.09.2017 05:00:00 6,9 5,7 5,0 16,0 17,1 9 5 14 7 Z 1024,8 50 0 0,0
20.09.2017 04:00:00 8,0 6,5 6,2 16,0 17,2 10 5 15 8 Z 1025,2 52 0 0,0
20.09.2017 03:00:00 9,7 8,8 7,2 16,1 17,2 5 3 9 5 ZZW 1025,2 43 0 0,0
20.09.2017 02:00:00 8,9 7,7 6,9 16,2 17,2 6 4 9 5 Z 1025,6 43 0 0,0
20.09.2017 01:00:00 10,5 8,8 8,9 16,2 17,2 5 3 10 5 Z 1025,6 48 0 0,0
20.09.2017 00:00:00 11,8 9,4 10,2 16,2 17,2 5 3 8 4 ZZO 1026,0 54 0 0,0
19.09.2017 23:00:00 11,5 9,6 9,2 16,3 17,2 8 4 12 6 Z 1026,4 54 0 0,0
19.09.2017 22:00:00 10,8 8,7 7,7 16,3 17,2 5 3 13 7 Z 1026,4 59 0 0,0
19.09.2017 21:00:00 11,1 7,6 8,2 16,2 17,2 6 4 14 8 ZW 1025,7 60 0 0,0
19.09.2017 20:00:00 13,9 7,9 10,4 16,2 17,2 9 5 18 10 WNW 1024,5 60 41 0,0
19.09.2017 19:00:00 17,2 7,5 15,6 16,0 17,2 11 6 35 19 WNW 1023,9 51 60 0,0
19.09.2017 18:00:00 18,2 7,9 19,6 15,9 17,2 16 8 27 15 W 1023,5 20 46 0,0
19.09.2017 17:00:00 18,6 7,1 25,6 15,7 17,2 17 9 36 20 W 1023,7 42 54 0,0
19.09.2017 16:00:00 18,3 5,5 24,0 15,6 17,2 21 11 35 19 W 1024,0 19 48 0,0
19.09.2017 15:00:00 18,0 7,4 21,7 15,6 17,2 21 11 34 18 W 1024,6 42 42 0,0
19.09.2017 14:00:00 17,9 7,6 20,2 15,5 17,2 15 8 44 24 W 1025,0 47 52 0,0
19.09.2017 13:00:00 16,4 8,1 21,5 15,5 17,2 22 12 32 17 W 1024,9 33 52 0,0
19.09.2017 12:00:00 15,7 9,6 16,8 15,5 17,2 18 10 32 18 W 1025,0 60 48 0,0
19.09.2017 11:00:00 14,9 9,9 14,3 15,6 17,3 15 8 22 12 W 1025,3 60 58 0,0
19.09.2017 10:00:00 13,2 9,8 - - - 5 3 13 7 Z 1025,1 50 - 0,0
19.09.2017 09:00:00 10,2 8,1 7,2 15,7 17,3 10 5 18 10 Z 1025,1 36 44 0,0
19.09.2017 08:00:00 8,2 7,3 6,4 15,8 17,3 11 6 17 9 Z 1025,4 54 0 0,0
19.09.2017 07:00:00 8,2 7,3 6,3 15,8 17,3 9 5 14 7 ZZW 1025,1 56 0 0,0
19.09.2017 06:00:00 8,6 7,7 6,4 15,9 17,3 8 4 13 7 ZZW 1024,9 48 0 0,2

tt = temperatuur
td = dauwpunt
tt 5cm = temperatuur 5cm
tt -20cm = temperatuur -20cm
tt -100cm = temperatuur -100cm
ff = windsnelheid
fx = windstoten
dd = windrichting
ppp = luchtdruk
vv = zicht
sd = Zonneschijnduur
rr = neerslag

Weerstations in de omgeving